Weather in Sant Francesc de Formentera

Spain     38°42′27″N   1°25′50″E
temp.,
°C
wind,
m/s
gust,
m/s
humid.,
%
clouds,
%
prec.,
mm/h
press.,
hPa
HPBL,
m
14 august, sun
sun1423:00+30nw11155911 0.0 1013274
02:00+29ne3363100 0.0 101016
05:00+29wnw23623 0.0 100917
08:00+28wnw45705 0.0 100985
11:00+29nnw346777 0.0 100965
14:00+30s1163100 0.0 100930
17:00+31s225170 0.0 1008143
20:00+30sse445912 0.0 100640
15 august, mon
mon1523:00+29ssw811735 0.0 1008275
02:00+28wsw8117714 0.0 1007352
05:00+27wsw810830 0.0 1005318
08:00+28wsw77810 0.0 1006395
11:00+28wnw55810 0.0 1007271
14:00+29w45730 0.0 1007186
17:00+29w44700 0.0 1007104
20:00+28sw33770 0.0 1006164
16 august, tue
tue1623:00+28ssw66790 0.0 1009375
02:00+27wsw66720 0.0 1008370
05:00+27ssw45720 0.0 1007397
08:00+27sw66700 0.0 1008630
11:00+26sw56750 0.0 1008600
14:00+27sw77771 0.0 1009545
17:00+27ssw7775100 0.0 1008413
20:00+27se337196 0.0 1006180
17 august, wed
wed1723:00+27s8973100 0.0 1008533
02:00+27sw91074100 0.0 1007607
05:00+27sw557178 0.0 1005369
08:00+27ssw3369100 0.0 1006334
11:00+27ssw6672100 0.0 1007509
14:00+27s447296 0.0 1008429
17:00+27s32730 0.0 1007333
20:00+27sse32720 0.0 1008196
18 august, thu
thu1823:00+27w23720 0.0 1009317
02:00+27nne33735 0.0 1010323
05:00+27nne457183 0.0 1009508
08:00+27nne57760 0.0 1011765
11:00+27ene55760 1.4 1012461
14:00+27ne66720 2.7 1013677
17:00+25ne77810 0.0 1013385
20:00+26ene65740 0.0 1013392